[[{"header":{"parameterUnit":"m.s-1","parameterCategory":1,"la1":30.2991,"la2":30.254,"lo1":-89.0895,"lo2":-89.0444,"dy":0.0017,"dx":0.0017,"nx":28,"ny":28,"refTime":"2024-12-03T09:00:00:Z","depth":0,"parameterNumber":2,"parameterNumberName":"U-component_of_WINDS"},"data":[0,0,0,0,0,0,0,0,0,0,0,0,0,0,0,0,0,0,0,0,0,0,0,0,0,0,0,0,0,0,0,0,0,0,0,0,0,0,0,0,0,0,0,0,0,0,0,0,0,0,0,0,0,0,0,0,0,0,-1.7578,-1.7579,0,-1.7616,-1.7616,-1.7617,-1.7614,-1.7613,-1.7613,-1.7612,-1.7652,-1.7654,-1.7655,0,0,0,0,0,0,0,0,0,0,0,0,0,-1.7506,-1.7508,-1.7578,-1.7579,-1.7579,-1.7616,-1.7616,-1.7617,-1.7614,-1.7613,-1.7612,-1.7612,-1.7652,-1.7653,-1.7655,0,0,0,0,0,0,0,0,0,0,0,0,0,-1.754,-1.7508,-1.7578,-1.7582,-1.7583,-1.7616,-1.7616,-1.7617,-1.7614,-1.7613,-1.7612,-1.7611,-1.7651,-1.7653,-1.7656,-1.7687,0,0,-1.7663,-1.7664,0,0,0,0,0,0,0,0,-1.7538,-1.7543,-1.7581,-1.7582,-1.7583,-1.7609,-1.7606,-1.7641,-1.7614,-1.7602,-1.7612,-1.7611,-1.7639,-1.7642,-1.7651,-1.7689,-1.7691,-1.7663,-1.7665,-1.7666,-1.7666,0,0,0,0,0,0,0,-1.7536,-1.7541,-1.7593,-1.7582,-1.7583,-1.7583,-1.7587,-1.7612,-1.7625,-1.7603,-1.7603,-1.7607,-1.7639,-1.7649,-1.7652,-1.7692,-1.7663,-1.7665,-1.7667,-1.7668,-1.7758,-1.7759,0,0,0,0,0,0,-1.7532,-1.7539,-1.7592,-1.7594,-1.7558,-1.7585,-1.7589,-1.7602,-1.7624,-1.7627,-1.7608,-1.7607,-1.7645,-1.7649,-1.7653,-1.7692,-1.7666,-1.7668,-1.7669,-1.7758,-1.7759,-1.776,0,0,0,0,0,0,-1.7531,-1.7537,-1.7591,-1.7567,-1.7574,-1.7587,-1.7601,-1.7603,-1.7612,-1.7628,-1.7631,-1.7616,-1.7644,-1.765,-1.7679,-1.7693,-1.7669,-1.7671,-1.7756,-1.7758,-1.7759,-1.777,0,0,0,0,0,0,-1.7529,-1.7536,-1.7548,-1.7567,-1.7575,-1.7615,-1.7602,-1.7604,-1.7616,-1.7615,-1.7636,-1.7638,-1.7644,-1.7675,-1.7681,-1.7696,-1.7673,-1.7755,-1.7757,-1.7759,-1.7769,-1.7772,-1.7775,0,0,0,0,0,-1.7526,-1.755,-1.7549,-1.7555,-1.759,-1.7616,-1.762,-1.7626,-1.7618,-1.763,-1.764,-1.7638,-1.7691,-1.7678,-1.7685,-1.7701,-1.7754,-1.7756,-1.7759,-1.7767,-1.7771,-1.7774,0,0,0,0,0,0,-1.7534,-1.7553,-1.7551,-1.7582,-1.7597,-1.7615,-1.7631,-1.763,-1.7648,-1.7647,-1.7654,-1.7658,-1.7688,-1.7697,-1.7683,-1.7733,-1.7722,-1.7725,-1.7726,-1.773,-1.7733,-1.773,-1.7675,0,0,0,0,0,-1.7539,-1.7558,-1.7574,-1.7599,-1.7607,-1.7618,-1.7629,-1.7632,-1.7649,-1.7655,-1.7667,-1.7684,-1.7704,-1.7717,-1.7737,-1.777,-1.7775,-1.7784,-1.7787,-1.779,-1.7793,-1.7811,-1.7816,-1.7767,-1.7767,-1.7767,0,0,-1.755,-1.7562,-1.7574,-1.7601,-1.7613,-1.7633,-1.7623,-1.7645,-1.766,-1.7659,-1.7687,-1.7696,-1.7715,-1.7746,-1.776,-1.7755,-1.7807,-1.7792,-1.7794,-1.7796,-1.7814,-1.7818,-1.7822,-1.7768,-1.7768,-1.7768,0,0,-1.758,-1.7591,-1.7614,-1.7626,-1.7644,-1.7651,-1.7657,-1.7675,-1.7681,-1.7709,-1.7709,-1.7727,-1.7762,-1.7775,-1.7787,-1.7822,-1.7821,-1.7829,-1.7844,-1.7862,-1.7866,-1.7869,-1.7882,-1.7886,-1.7832,-1.7832,-1.7832,0,-1.7591,-1.7621,-1.7626,-1.7648,-1.766,-1.7659,-1.7682,-1.7694,-1.7718,-1.7727,-1.772,-1.7764,-1.7776,-1.7811,-1.7819,-1.7829,-1.7835,-1.7826,-1.7865,-1.7868,-1.7872,-1.7884,-1.7889,-1.7832,-1.7832,-1.7832,-1.7832,0,-1.7634,-1.7655,-1.7671,-1.7693,-1.7707,-1.773,-1.7739,-1.7752,-1.7754,-1.7762,-1.7791,-1.7806,-1.7829,-1.7837,-1.784,-1.7872,-1.7868,-1.7863,-1.7852,-1.7877,-1.7889,-1.7893,-1.7834,-1.7833,-1.7833,-1.7833,0,0,-1.767,-1.7695,-1.7701,-1.7711,-1.7731,-1.7747,-1.777,-1.7792,-1.7803,-1.782,-1.784,-1.7869,-1.7865,-1.7878,-1.7882,-1.7897,-1.7924,-1.789,-1.7891,-1.7896,-1.7961,-1.7965,-1.797,-1.7924,-1.7924,-1.7925,-1.796,0,-1.7703,-1.7742,-1.7747,-1.7782,-1.7801,-1.7801,-1.7821,-1.7835,-1.7843,-1.7862,-1.7871,-1.7892,-1.7884,-1.7892,-1.7907,-1.7918,-1.7937,-1.7915,-1.7942,-1.7943,-1.7937,-1.7976,-1.798,-1.8012,-1.7964,-1.7965,-1.7966,0,-1.7745,-1.7762,-1.7799,-1.7817,-1.7825,-1.7843,-1.7863,-1.788,-1.7897,-1.7902,-1.7916,-1.7918,-1.7942,-1.793,-1.7963,-1.7948,-1.7959,-1.7966,-1.7967,-1.797,-1.7956,-1.798,-1.8022,-1.8027,-1.7973,-1.7972,-1.7972,0,-1.7768,-1.7801,-1.7827,-1.7835,-1.7856,-1.7869,-1.7878,-1.7894,-1.7907,-1.7925,-1.7933,-1.7954,-1.7966,-1.7982,-1.7989,-1.798,-1.8023,-1.8011,-1.8028,-1.8027,-1.8037,-1.8036,-1.8081,-1.8044,-1.8044,-1.8044,-1.8044,0,-1.7804,-1.7826,-1.7837,-1.7853,-1.7879,-1.7885,-1.791,-1.7919,-1.7933,-1.7952,-1.7953,-1.797,-1.7979,-1.7998,-1.8004,-1.8031,-1.8036,-1.8041,-1.8043,-1.8041,-1.8041,-1.8049,-1.8047,-1.8045,-1.8045,-1.8045,-1.8044,0,-1.7834,-1.7842,-1.787,-1.7887,-1.7892,-1.791,-1.7925,-1.7941,-1.7949,-1.7972,-1.7978,-1.7991,-1.8013,-1.8022,-1.805,-1.8054,-1.8085,-1.8084,-1.8079,-1.8079,-1.8096,-1.8094,-1.8148,-1.8155,-1.8113,-1.8113,-1.8114,0,-1.7856,-1.7873,-1.7892,-1.7904,-1.7913,-1.7933,-1.7946,-1.7952,-1.7966,-1.7986,-1.8,-1.8022,-1.804,-1.8076,-1.8088,-1.8109,-1.8109,-1.8126,-1.8112,-1.811,-1.8109,-1.8108,-1.811,-1.8129,-1.8129,-1.813,-1.813,0,-1.7895,-1.7898,-1.7916,-1.7935,-1.795,-1.7966,-1.7981,-1.7991,-1.8,-1.8015,-1.8038,-1.8052,-1.8079,-1.8101,-1.8123,-1.8133,-1.8134,-1.8134,-1.8139,-1.8138,-1.8134,-1.8137,-1.8086,-1.8133,-1.8133,-1.8133,-1.8132,-1.8132,-1.7922,-1.7937,-1.7953,-1.7973,-1.7985,-1.7999,-1.8015,-1.8024,-1.8043,-1.8065,-1.8068,-1.8092,-1.8109,-1.8138,-1.8149,-1.8169,-1.8164,-1.8171,-1.8173,-1.8175,-1.8176,-1.8131,-1.8173,-1.8172,-1.8172,-1.8172,-1.8172,0,-1.7961,-1.7971,-1.7989,-1.801,-1.8026,-1.8023,-1.804,-1.8054,-1.8075,-1.809,-1.8108,-1.8133,-1.8155,-1.8168,-1.819,-1.8203,-1.8203,-1.8208,-1.8207,-1.821,-1.8179,-1.8172,-1.8207,-1.8207,-1.8207,-1.8207,-1.8207,-1.8207,-1.7983,-1.8009,-1.8014,-1.8046,-1.8055,-1.8078,-1.8088,-1.8102,-1.8114,-1.8142,-1.816,-1.8168,-1.8183,-1.8205,-1.8225,-1.8228,-1.8236,-1.8242,-1.8245,-1.8216,-1.8212,-1.8209,-1.8202,-1.8243,-1.8243,-1.8274,-1.8274,-1.8275]},{"header":{"parameterUnit":"m.s-1","parameterCategory":1,"la1":30.2991,"la2":30.254,"lo1":-89.0895,"lo2":-89.0444,"dy":0.0017,"dx":0.0017,"nx":28,"ny":28,"refTime":"2024-12-03T09:00:00:Z","depth":0,"parameterNumber":3,"parameterNumberName":"V-component_of_WINDS"},"data":[0,0,0,0,0,0,0,0,0,0,0,0,0,0,0,0,0,0,0,0,0,0,0,0,0,0,0,0,0,0,0,0,0,0,0,0,0,0,0,0,0,0,0,0,0,0,0,0,0,0,0,0,0,0,0,0,0,0,4.329,4.329,0,4.3289,4.3289,4.3289,4.3229,4.3228,4.3226,4.3225,4.3223,4.3225,4.3226,0,0,0,0,0,0,0,0,0,0,0,0,0,4.3239,4.3241,4.329,4.329,4.329,4.3289,4.3289,4.3289,4.323,4.3228,4.3226,4.3224,4.3223,4.3224,4.3226,0,0,0,0,0,0,0,0,0,0,0,0,0,4.3252,4.3241,4.329,4.326,4.3258,4.3289,4.3289,4.3289,4.323,4.3228,4.3225,4.3223,4.3222,4.3224,4.3226,4.3286,0,0,4.3233,4.3234,0,0,0,0,0,0,0,0,4.3252,4.3254,4.3265,4.3262,4.3259,4.3257,4.327,4.3288,4.3231,4.324,4.3225,4.3222,4.3236,4.3237,4.3242,4.3286,4.3286,4.3233,4.3234,4.3235,4.3236,0,0,0,0,0,0,0,4.3251,4.3254,4.329,4.3265,4.3262,4.3247,4.3246,4.3274,4.3251,4.3239,4.3235,4.3236,4.3234,4.324,4.3241,4.3286,4.3233,4.3235,4.3236,4.3237,4.3378,4.338,0,0,0,0,0,0,4.3254,4.3254,4.329,4.329,4.325,4.3249,4.3249,4.326,4.3251,4.3247,4.3238,4.3233,4.3238,4.3239,4.3241,4.331,4.3235,4.3237,4.3238,4.3376,4.3379,4.3381,0,0,0,0,0,0,4.3253,4.3258,4.329,4.327,4.3273,4.3253,4.3266,4.3261,4.3267,4.325,4.3245,4.3248,4.3236,4.3238,4.3275,4.3309,4.3238,4.324,4.3373,4.3377,4.338,4.3449,0,0,0,0,0,0,4.3252,4.3258,4.3281,4.3271,4.3275,4.3324,4.3268,4.3263,4.3271,4.3265,4.3258,4.3255,4.3234,4.3272,4.3277,4.3311,4.3242,4.337,4.3374,4.3379,4.3443,4.3454,4.3464,0,0,0,0,0,4.325,4.33,4.3282,4.3287,4.3303,4.3326,4.3328,4.3304,4.3274,4.3296,4.3285,4.3255,4.3305,4.3277,4.3282,4.3316,4.3367,4.3373,4.3378,4.3439,4.3452,4.3463,0,0,0,0,0,0,4.3314,4.3298,4.3278,4.3326,4.3328,4.3316,4.3344,4.3319,4.3329,4.3323,4.3292,4.3291,4.3332,4.3328,4.3297,4.3373,4.3331,4.3338,4.3375,4.3387,4.3397,4.3397,4.3243,0,0,0,0,0,4.3333,4.3354,4.3339,4.3383,4.3385,4.3365,4.3374,4.3355,4.3355,4.3356,4.3347,4.3349,4.3365,4.3376,4.3389,4.3442,4.344,4.3469,4.3479,4.3487,4.3494,4.3521,4.3533,4.34,4.34,4.34,0,0,4.3374,4.3368,4.3383,4.3396,4.3395,4.3417,4.3365,4.3391,4.3407,4.3359,4.3394,4.3388,4.3387,4.3433,4.3452,4.343,4.353,4.3495,4.3501,4.3503,4.3528,4.3541,4.3552,4.3403,4.3403,4.3402,0,0,4.3459,4.3457,4.3493,4.3493,4.3492,4.3478,4.3487,4.3479,4.3473,4.3507,4.3472,4.349,4.3519,4.352,4.3524,4.3609,4.3582,4.3615,4.3668,4.3695,4.3705,4.3714,4.3745,4.3756,4.3621,4.3621,4.3621,0,4.3509,4.3541,4.3515,4.3542,4.3549,4.3507,4.3543,4.3545,4.3549,4.3554,4.3529,4.3564,4.356,4.3605,4.3626,4.3631,4.364,4.3615,4.3706,4.3715,4.3723,4.3751,4.3763,4.3625,4.3624,4.3624,4.3624,0,4.3603,4.3626,4.3655,4.366,4.3669,4.3701,4.3679,4.3692,4.3672,4.3661,4.3696,4.3691,4.3702,4.3711,4.3693,4.3754,4.374,4.3711,4.3668,4.374,4.3766,4.3777,4.3631,4.3629,4.3628,4.3627,0,0,4.3728,4.3718,4.3729,4.373,4.3726,4.3743,4.3773,4.3784,4.3796,4.38,4.3824,4.3849,4.3822,4.3827,4.3808,4.3832,4.3899,4.38,4.3799,4.3818,4.3966,4.3987,4.4,4.3881,4.3883,4.3885,4.3966,0,4.381,4.386,4.3837,4.389,4.391,4.3871,4.3897,4.3897,4.3887,4.3903,4.3891,4.3909,4.3873,4.3876,4.3897,4.3886,4.3928,4.388,4.3903,4.3904,4.3904,4.4014,4.4037,4.4113,4.3976,4.3977,4.3979,0,4.3912,4.3921,4.3976,4.3968,4.3975,4.3999,4.4008,4.4023,4.4023,4.4014,4.4019,4.3994,4.4023,4.398,4.4018,4.3986,4.3994,4.399,4.3992,4.3993,4.3945,4.4017,4.4137,4.4149,4.3994,4.3993,4.3992,0,4.3997,4.4022,4.4058,4.4061,4.4053,4.407,4.4068,4.4065,4.4073,4.4081,4.4086,4.4097,4.4103,4.4111,4.409,4.4061,4.4131,4.4087,4.4124,4.4125,4.4141,4.414,4.4263,4.4147,4.4146,4.4146,4.4146,0,4.4091,4.4126,4.4096,4.4119,4.4157,4.4129,4.4168,4.4161,4.4159,4.4178,4.4145,4.4165,4.4135,4.4152,4.4135,4.4169,4.4172,4.4166,4.4161,4.4169,4.417,4.4173,4.4167,4.4149,4.4149,4.4148,4.4147,0,4.4193,4.4174,4.4211,4.42,4.4198,4.4227,4.4217,4.4237,4.4225,4.425,4.4255,4.4235,4.4253,4.4233,4.4249,4.4237,4.4284,4.4271,4.4284,4.428,4.4319,4.4316,4.4449,4.4465,4.4338,4.4339,4.4341,0,4.4254,4.428,4.4272,4.4283,4.4282,4.43,4.4308,4.4283,4.4293,4.4294,4.4314,4.4329,4.4339,4.4369,4.4356,4.4368,4.4355,4.4401,4.4357,4.4364,4.4356,4.4354,4.4357,4.441,4.4412,4.4413,4.4414,0,4.4364,4.4353,4.4367,4.4377,4.4388,4.4395,4.4399,4.441,4.4383,4.4396,4.4413,4.4422,4.4438,4.4453,4.4461,4.4458,4.4432,4.4428,4.4437,4.4445,4.4452,4.4449,4.4308,4.4425,4.4424,4.4423,4.4423,4.4422,4.4446,4.4468,4.4465,4.4481,4.4482,4.4486,4.4504,4.4494,4.4509,4.452,4.4504,4.4526,4.4524,4.4533,4.4533,4.4549,4.453,4.4543,4.4547,4.455,4.4556,4.4449,4.4551,4.4551,4.455,4.455,4.455,0,4.4554,4.4551,4.4566,4.4573,4.4586,4.456,4.4563,4.4575,4.4595,4.4596,4.4607,4.4627,4.4641,4.463,4.4642,4.4657,4.4645,4.4661,4.466,4.4659,4.4573,4.4564,4.4671,4.4671,4.4671,4.4671,4.467,4.467,4.4612,4.4646,4.4636,4.467,4.4666,4.4687,4.4691,4.4695,4.4696,4.472,4.4732,4.4724,4.472,4.4731,4.4743,4.474,4.4745,4.4766,4.4758,4.4677,4.4665,4.4654,4.4645,4.4767,4.4767,4.4842,4.4843,4.4844]}]]